Theta_e
348 345 347 348 347 344 344 343 343 343 343 343 342 337 341 338 342 346 346 349 348 348 348 347 345 342 347 346 340 341 344 342 340
345 345 347 348 347 346 344 343 343 343 343 343 343 342 335 340 336 344 346 347 348 348 346 346 345 348 343 344 341 337 340 341 339
345 347 347 348 348 347 346 345 345 344 344 344 344 343 342 335 337 336 345 346 349 344 347 347 345 349 349 346 346 343 339 338 342
342 346 348 348 349 348 347 347 346 346 345 344 344 344 344 343 334 335 338 344 347 348 349 351 347 349 350 350 348 346 338 342 342
342 346 348 348 349 348 348 347 347 347 347 346 345 345 344 344 342 332 334 338 344 346 349 350 349 349 349 351 349 347 346 338 342
344 344 346 346 344 346 348 349 348 347 347 347 347 346 346 345 345 341 330 331 340 343 346 348 347 346 346 350 350 348 347 342 335
343 342 344 344 340 339 340 338 347 349 349 349 348 348 347 346 345 345 342 329 328 337 344 345 347 346 345 346 348 348 348 345 336
342 344 345 345 345 342 340 341 338 348 348 350 349 349 349 348 346 346 346 345 334 327 330 341 343 342 348 350 351 348 347 346 344
338 338 339 340 344 346 345 343 342 339 350 350 349 350 350 350 349 348 347 347 347 343 330 328 331 340 337 347 349 348 346 343 340
336 337 335 335 335 343 345 347 346 345 344 351 350 353 353 352 351 350 350 349 349 349 348 340 330 329 331 334 341 344 341 340 340
329 332 335 332 333 333 339 344 345 346 344 346 348 350 351 355 355 354 353 353 352 351 349 349 345 337 332 331 331 332 333 335 339
324 328 331 330 330 331 331 333 344 346 346 346 346 344 349 353 356 356 355 355 354 353 352 350 349 347 343 337 335 336 335 334 335
321 326 326 326 327 327 327 331 337 346 346 345 343 352 353 353 351 354 355 355 355 354 353 351 348 349 349 347 343 341 341 340 337
321 322 324 324 324 325 327 328 332 343 345 342 340 344 348 349 348 354 355 355 354 353 353 353 352 351 348 347 346 345 345 344 343
320 320 320 323 323 323 323 326 330 334 342 343 341 341 338 345 350 354 357 356 355 353 353 353 353 353 352 351 349 345 344 344 344
317 319 318 320 321 321 321 321 326 333 336 338 342 340 337 340 350 353 356 357 356 354 354 353 353 354 353 352 352 350 345 342 341
316 316 317 320 321 320 320 319 321 324 333 337 338 341 339 338 346 351 357 356 357 355 354 354 354 354 354 353 353 352 350 347 343
315 315 316 319 320 320 319 318 321 321 325 333 335 337 342 342 351 350 355 357 358 358 357 356 355 355 354 354 354 354 353 352 349
312 315 316 317 318 319 318 317 318 321 321 326 333 336 341 348 355 355 352 356 358 357 359 358 357 357 357 357 357 357 357 357 356
312 314 315 316 317 318 319 317 316 316 318 322 328 333 337 346 355 360 358 359 358 360 360 360 360 359 358 359 360 360 359 360 359
Wind_Speed
39 39 41 44 40 45 52 52 50 47 43 39 34 36 36 35 38 34 31 26 27 24 23 17 12 13 15 12 11 14 15 16 19
38 39 42 46 39 43 50 50 50 49 47 42 38 37 39 38 39 39 36 29 25 27 22 19 18 15 15 14 10 10 12 16 16
25 36 40 45 52 48 40 45 47 49 48 45 40 39 39 41 40 40 40 35 27 29 24 20 19 21 19 18 15 12 14 15 16
32 39 41 49 46 44 50 42 41 46 51 49 44 43 41 40 43 42 42 40 35 29 28 26 25 20 21 24 20 14 15 16 14
22 30 39 40 47 41 43 52 47 43 46 50 48 44 44 42 42 44 43 44 42 36 33 30 29 27 21 25 24 18 15 16 17
15 23 36 41 40 33 31 39 44 44 41 45 49 48 47 45 42 45 48 46 46 43 38 34 34 33 29 23 26 22 17 16 17
6 33 31 30 34 27 19 12 36 42 40 42 46 46 49 48 45 43 46 48 47 46 45 41 37 34 33 30 28 25 21 19 17
33 15 6 9 20 31 33 28 20 36 36 38 45 45 47 52 48 44 42 44 49 49 48 47 44 41 38 33 31 31 30 27 24
26 21 17 12 9 17 30 35 26 23 17 32 41 42 47 50 49 47 46 43 43 47 51 51 49 48 44 43 39 35 32 30 27
16 17 13 18 22 23 10 6 20 22 36 23 34 33 41 44 47 46 45 46 43 44 46 48 53 52 49 47 45 43 40 35 31
20 19 16 13 15 15 17 4 7 14 26 34 30 30 27 39 46 46 42 43 43 41 41 43 46 50 53 50 48 45 43 39 36
21 19 14 16 18 18 19 17 11 16 13 16 23 23 24 23 39 43 46 44 44 41 37 39 42 45 46 50 49 44 41 39 39
19 16 15 15 14 14 15 15 9 12 12 16 23 25 27 23 18 38 49 48 46 43 39 35 37 41 43 45 45 44 41 40 39
12 14 15 18 17 17 16 16 15 12 4 20 17 32 33 28 32 36 47 54 52 48 42 39 38 39 38 39 40 40 38 36 36
12 14 17 18 19 18 17 15 13 13 11 14 15 12 36 35 36 39 38 46 51 49 46 43 42 42 41 39 38 36 36 35 35
15 15 18 16 17 21 19 16 15 17 12 10 18 31 29 28 35 29 36 43 49 52 49 47 47 46 44 42 40 38 35 33 33
21 19 19 16 15 18 16 14 17 17 19 20 20 18 22 25 26 30 35 46 45 49 51 50 51 48 47 42 41 39 37 36 34
22 22 17 13 15 14 13 14 13 20 18 23 25 21 18 23 22 33 31 39 42 45 47 49 51 48 45 42 41 40 36 35 35
20 21 18 16 14 17 12 10 13 17 19 20 21 24 19 19 21 24 34 30 39 43 45 49 48 45 43 39 37 33 31 31 30
20 20 20 18 19 19 20 15 13 13 18 18 16 17 19 18 16 19 26 31 39 41 45 45 43 42 38 38 36 31 29 28 27
Wind_Direction
197 210 203 200 202 200 205 205 207 208 212 217 222 223 218 211 212 209 211 216 221 218 216 219 212 212 210 206 199 203 208 205 203
193 198 193 202 200 199 206 209 210 212 214 218 224 228 225 219 213 212 212 216 217 220 226 220 210 210 201 201 205 213 214 208 209
185 187 192 195 196 200 199 210 214 216 219 221 227 229 230 226 220 215 212 213 217 216 219 212 213 223 223 215 218 220 216 215 209
201 199 186 184 188 199 202 205 213 220 221 222 226 230 231 231 228 221 216 216 216 219 218 220 221 224 232 225 223 229 222 217 213
215 196 191 194 197 203 206 205 209 215 221 224 226 231 233 233 232 228 222 218 218 219 222 224 227 232 232 224 224 230 232 223 218
220 198 205 214 214 217 205 203 208 212 220 229 229 229 233 235 234 232 229 224 221 222 223 225 231 235 233 222 225 228 233 238 231
252 207 206 213 220 219 229 278 224 213 219 230 230 230 233 234 236 234 233 232 228 224 225 226 229 233 236 233 235 239 239 241 245
59 78 118 241 250 256 257 267 277 212 224 228 230 230 237 237 237 239 237 236 235 232 228 229 232 232 234 234 234 240 244 248 252
85 66 66 35 323 272 265 259 257 237 232 222 225 233 238 240 238 238 240 238 238 237 234 233 232 234 235 235 238 241 245 250 252
42 63 65 44 24 16 340 207 230 241 230 200 208 223 235 240 242 239 241 242 240 239 238 236 236 237 237 237 238 242 246 247 251
36 36 33 44 32 12 9 274 258 262 222 228 220 221 232 239 238 242 243 241 241 240 240 238 236 238 239 240 242 244 246 248 251
27 27 22 11 20 11 349 353 319 302 254 223 238 236 237 229 242 244 244 242 240 240 241 241 237 237 240 241 243 244 244 245 248
12 29 12 358 359 350 346 355 337 304 245 213 226 222 219 213 247 251 244 249 245 242 243 244 242 240 239 242 245 247 249 248 246
355 5 8 353 356 1 351 333 338 333 254 237 263 223 224 254 276 259 249 246 249 246 243 243 245 244 243 243 243 244 244 245 245
343 336 340 345 347 352 350 342 336 327 316 263 256 237 229 265 264 257 245 246 247 245 243 244 243 245 246 247 248 248 248 247 245
317 322 322 328 337 336 333 341 341 318 311 304 253 254 244 265 256 260 243 245 242 243 241 242 244 242 243 248 251 251 250 248 245
305 312 317 320 322 331 343 326 329 328 311 307 304 277 251 263 258 255 252 235 242 243 243 241 238 240 243 246 248 252 252 250 246
288 295 304 304 309 307 322 321 311 309 308 299 301 298 283 272 269 249 252 241 240 244 248 248 245 245 247 248 249 252 256 256 252
278 284 286 280 287 296 308 305 299 293 300 293 299 301 296 280 273 252 246 250 245 243 247 247 246 250 253 257 261 262 263 260 262
267 269 274 274 282 294 300 301 298 283 277 279 290 297 290 282 279 260 244 241 243 242 242 242 245 244 252 255 259 260 259 259 258